ESNBA EETN-EEPU

Flight info

Callsign ESNBA
Flight time 0h 26m
Altitude 4000
Route UMSAL DCT
Aircraft SF50/L-SFG/C

Departure

Time 2026-05-05 19:18
Airport Lennart Meri Tallinn Airport (EETN)

Arrival

Time 2026-05-05 19:44
Airport Pärnu Airport (EEPU)
Time Latitude Longitude Altitude Speed Heading
2026-05-05 19:18 59.17438 24.63824 3994 ft 142 kts 182°
2026-05-05 19:18 59.16450 24.63962 3994 ft 142 kts 182°
2026-05-05 19:18 59.15463 24.64100 3992 ft 142 kts 182°
2026-05-05 19:19 59.14476 24.64233 3991 ft 142 kts 182°
2026-05-05 19:19 59.13493 24.64366 3990 ft 142 kts 182°
2026-05-05 19:19 59.12542 24.64499 4140 ft 134 kts 182°
2026-05-05 19:19 59.11585 24.64632 4401 ft 143 kts 182°
2026-05-05 19:20 59.10580 24.64753 4683 ft 144 kts 183°
2026-05-05 19:20 59.09584 24.64879 4946 ft 143 kts 182°
2026-05-05 19:20 59.08594 24.65012 5205 ft 142 kts 183°
2026-05-05 19:20 59.07612 24.65151 5465 ft 142 kts 183°
2026-05-05 19:21 59.06624 24.65294 5730 ft 142 kts 183°
2026-05-05 19:21 59.05656 24.65452 6108 ft 139 kts 183°
2026-05-05 19:21 59.04675 24.65617 6493 ft 143 kts 183°
2026-05-05 19:21 59.03688 24.65808 6872 ft 141 kts 183°
2026-05-05 19:22 59.02726 24.66028 7250 ft 138 kts 183°
2026-05-05 19:22 59.02097 24.66195 7504 ft 138 kts 183°
2026-05-05 19:22 59.00821 24.66566 7845 ft 147 kts 183°
2026-05-05 19:22 58.99808 24.66867 7858 ft 144 kts 183°
2026-05-05 19:23 58.98840 24.67167 7854 ft 138 kts 183°
2026-05-05 19:23 58.98206 24.67370 7840 ft 136 kts 183°
2026-05-05 19:23 58.97266 24.67667 7847 ft 137 kts 183°
2026-05-05 19:23 58.96323 24.67965 7850 ft 137 kts 183°
2026-05-05 19:24 58.95376 24.68275 7850 ft 138 kts 183°
2026-05-05 19:24 58.94438 24.68505 7851 ft 137 kts 187°
2026-05-05 19:24 58.93487 24.68668 7853 ft 137 kts 187°
2026-05-05 19:24 58.92535 24.68833 7853 ft 137 kts 187°
2026-05-05 19:25 58.91584 24.69003 7853 ft 137 kts 187°
2026-05-05 19:25 58.90636 24.69167 7852 ft 137 kts 187°
2026-05-05 19:25 58.89687 24.69336 7852 ft 137 kts 187°
2026-05-05 19:25 58.88740 24.69502 7852 ft 137 kts 187°
2026-05-05 19:26 58.87795 24.69667 7850 ft 136 kts 187°
2026-05-05 19:26 58.86850 24.69832 7850 ft 136 kts 187°
2026-05-05 19:26 58.85905 24.69994 7850 ft 136 kts 187°
2026-05-05 19:26 58.84961 24.70157 7850 ft 136 kts 187°
2026-05-05 19:27 58.84030 24.70316 7854 ft 136 kts 187°
2026-05-05 19:27 58.83087 24.70478 7857 ft 136 kts 187°
2026-05-05 19:27 58.82143 24.70639 7857 ft 136 kts 187°
2026-05-05 19:27 58.81202 24.70798 7857 ft 136 kts 187°
2026-05-05 19:28 58.80259 24.70957 7856 ft 136 kts 187°
2026-05-05 19:28 58.79320 24.71112 7856 ft 135 kts 187°
2026-05-05 19:28 58.78381 24.71265 7837 ft 135 kts 188°
2026-05-05 19:28 58.77457 24.71453 7851 ft 133 kts 187°
2026-05-05 19:29 58.76546 24.71647 7849 ft 131 kts 187°
2026-05-05 19:29 58.75640 24.71847 7847 ft 131 kts 187°
2026-05-05 19:29 58.74740 24.72038 7848 ft 132 kts 187°
2026-05-05 19:29 58.73824 24.72241 7850 ft 133 kts 187°
2026-05-05 19:30 58.72905 24.72439 7852 ft 133 kts 187°
2026-05-05 19:30 58.71981 24.72642 7833 ft 135 kts 187°
2026-05-05 19:30 58.70954 24.72809 7166 ft 160 kts 187°
2026-05-05 19:30 58.69808 24.72685 6445 ft 170 kts 195°
2026-05-05 19:31 58.68599 24.72334 5669 ft 179 kts 196°
2026-05-05 19:31 58.67358 24.71924 4912 ft 186 kts 196°
2026-05-05 19:31 58.66068 24.71453 4135 ft 191 kts 196°
2026-05-05 19:31 58.64757 24.70946 3346 ft 193 kts 196°
2026-05-05 19:32 58.63435 24.70410 2575 ft 195 kts 197°
2026-05-05 19:32 58.62104 24.69854 1801 ft 197 kts 197°
2026-05-05 19:32 58.60816 24.69317 1572 ft 176 kts 196°
2026-05-05 19:32 58.59690 24.68870 1566 ft 154 kts 197°
2026-05-05 19:33 58.58697 24.68496 1569 ft 139 kts 196°
2026-05-05 19:33 58.57796 24.68168 1705 ft 124 kts 197°
2026-05-05 19:33 58.56992 24.67568 1879 ft 135 kts 216°
2026-05-05 19:33 58.56144 24.66696 1887 ft 137 kts 214°
2026-05-05 19:34 58.55317 24.65846 1884 ft 133 kts 215°
2026-05-05 19:34 58.54507 24.65019 1883 ft 131 kts 214°
2026-05-05 19:34 58.53720 24.64176 1878 ft 128 kts 220°
2026-05-05 19:35 58.52246 24.62241 1818 ft 121 kts 225°
2026-05-05 19:35 58.51638 24.61280 1704 ft 109 kts 226°
2026-05-05 19:35 58.51040 24.60402 1611 ft 106 kts 225°
2026-05-05 19:35 58.50477 24.59542 1593 ft 99 kts 230°
2026-05-05 19:36 58.49952 24.58665 1516 ft 103 kts 229°
2026-05-05 19:36 58.49397 24.57680 1454 ft 114 kts 225°
2026-05-05 19:36 58.48738 24.56788 1403 ft 114 kts 221°
2026-05-05 19:36 58.48054 24.55881 1220 ft 121 kts 222°
2026-05-05 19:37 58.47379 24.54930 1090 ft 121 kts 223°
2026-05-05 19:37 58.46694 24.53968 923 ft 122 kts 222°
2026-05-05 19:37 58.46073 24.52964 970 ft 110 kts 227°
2026-05-05 19:37 58.45460 24.52017 805 ft 115 kts 217°
2026-05-05 19:38 58.44767 24.51176 608 ft 119 kts 216°
2026-05-05 19:38 58.44102 24.50267 431 ft 116 kts 218°
2026-05-05 19:38 58.43455 24.49365 254 ft 115 kts 215°
2026-05-05 19:38 58.42805 24.48482 85 ft 108 kts 216°
2026-05-05 19:39 58.42261 24.47738 39 ft 81 kts 212°
2026-05-05 19:39 58.41712 24.46973 130 ft 116 kts 219°
2026-05-05 19:39 58.41010 24.46020 638 ft 129 kts 218°
2026-05-05 19:39 58.40216 24.44967 1140 ft 149 kts 214°
2026-05-05 19:40 58.39201 24.44983 1655 ft 154 kts 146°
2026-05-05 19:40 58.38559 24.46530 1631 ft 162 kts 125°
2026-05-05 19:40 58.38278 24.48676 1652 ft 178 kts 68°
2026-05-05 19:40 58.39171 24.50144 1897 ft 167 kts 25°
2026-05-05 19:41 58.40192 24.51295 2098 ft 172 kts 25°
2026-05-05 19:41 58.41276 24.52465 2162 ft 184 kts 24°
2026-05-05 19:41 58.42403 24.53682 2267 ft 191 kts 26°
2026-05-05 19:41 58.43537 24.55055 2337 ft 196 kts 28°
2026-05-05 19:42 58.44667 24.56378 2410 ft 181 kts 19°
2026-05-05 19:42 58.45804 24.56227 2322 ft 144 kts 319°
2026-05-05 19:42 58.46099 24.54725 1924 ft 134 kts 266°
2026-05-05 19:42 58.45755 24.53119 1432 ft 116 kts 244°
2026-05-05 19:43 58.45284 24.51998 857 ft 105 kts 223°
2026-05-05 19:43 58.44751 24.51195 476 ft 97 kts 219°
2026-05-05 19:43 58.44165 24.50306 362 ft 104 kts 216°
2026-05-05 19:43 58.43592 24.49582 279 ft 105 kts 217°
2026-05-05 19:44 58.42935 24.48659 136 ft 122 kts 216°
2026-05-05 19:44 58.42324 24.47829 38 ft 84 kts 214°
2026-05-05 19:44 58.42082 24.47498 39 ft 28 kts 216°
2026-05-05 19:44 58.41948 24.47318 36 ft 13 kts 214°
2026-05-05 19:45 58.41895 24.47208 36 ft 11 kts 260°
2026-05-05 19:45 58.41922 24.47095 38 ft 9 kts 306°
2026-05-05 19:45 58.41955 24.46997 38 ft 9 kts 303°
2026-05-05 19:45 58.41990 24.46894 38 ft 10 kts 303°
2026-05-05 19:46 58.42012 24.46833 38 ft 6 kts 299°
2026-05-05 19:46 58.42043 24.46740 38 ft 11 kts 304°
2026-05-05 19:46 58.42041 24.46671 38 ft 5 kts 233°
2026-05-05 19:46 58.42042 24.46601 38 ft 2 kts 303°
2026-05-05 19:47 58.42043 24.46601 38 ft 0 kts 303°